Theta_e
322 321 321 320 324 327 327 329 334 334 331 331 333 332 325 327 323 318 321 319 322 325 322 323 323 326 332 332 336 341 339 343 349 349 352 345 335 338 340 339 340 338 338 338 338 340 340 341 339 338 339 338 339 330 326 332 328 323 326 329 329 330 333 333 333 333 333 332 334 334 332 333 333 335 335 334 334 333 333 332 331 331 331 330 331 331 331 331 330 330 329 329 329 329 330 330 329
321 321 320 321 325 325 328 333 337 335 333 332 331 332 329 326 321 323 325 324 327 321 320 328 331 330 332 331 329 330 328 332 338 340 340 338 338 340 339 339 339 337 338 338 338 340 340 340 337 336 339 338 339 332 326 333 334 329 327 327 327 329 331 331 332 333 332 333 333 334 334 333 334 334 334 333 332 331 331 330 330 330 330 330 330 330 329 329 328 327 327 328 328 328 328 328 328
319 320 320 323 325 325 332 334 337 333 328 329 331 333 327 323 325 327 325 324 324 316 320 328 328 326 325 324 322 324 327 332 336 337 336 339 341 339 339 340 338 338 338 338 339 340 340 338 335 335 338 339 338 334 328 333 336 335 334 331 326 325 330 329 331 333 332 333 333 332 332 332 332 332 331 331 330 329 329 329 329 329 329 329 329 328 328 327 327 327 327 327 327 327 327 327 327
319 320 321 325 328 332 339 334 338 334 325 331 331 331 332 328 328 326 323 319 318 318 321 322 322 319 318 321 322 324 330 335 337 337 339 339 340 340 340 339 338 338 338 339 340 340 340 336 334 335 338 339 338 336 332 333 336 336 336 336 331 323 328 330 330 332 333 333 332 332 331 330 330 329 329 329 329 328 329 328 328 328 328 328 327 327 327 327 326 326 326 325 326 326 326 326 326
319 321 320 326 330 334 338 329 334 331 324 333 330 331 338 333 327 324 326 322 319 322 323 322 322 320 319 325 327 328 329 332 335 335 339 339 339 340 339 339 338 338 339 339 340 340 339 335 333 335 337 339 338 337 335 333 335 337 337 337 336 327 325 330 330 328 330 332 331 332 331 330 329 328 328 328 328 327 329 329 328 328 328 327 327 327 327 326 325 325 325 325 326 326 326 326 326
319 321 323 326 326 328 333 331 332 330 327 331 331 335 337 331 326 324 327 326 323 322 321 322 323 324 328 329 327 328 330 331 335 336 337 339 340 340 339 339 338 339 339 339 340 340 337 333 334 336 337 338 337 338 336 334 334 336 337 336 337 333 328 329 330 326 325 330 331 332 331 330 329 328 328 327 329 328 329 328 328 328 327 327 327 327 326 327 327 327 327 325 325 325 326 325 326
320 322 329 330 330 333 337 338 337 337 332 326 331 335 333 330 325 322 325 324 322 321 318 321 323 325 328 328 328 328 329 333 333 335 337 339 340 339 340 338 338 339 339 340 340 339 336 333 335 337 337 338 337 338 337 335 335 335 336 336 337 337 333 330 329 324 323 326 329 332 331 331 330 330 330 329 329 329 329 328 328 327 327 327 327 327 325 326 327 327 327 325 326 325 325 325 324
321 324 329 333 338 337 337 339 338 338 332 325 328 329 328 327 322 322 325 323 320 322 319 321 324 322 322 325 335 331 328 334 332 335 337 339 340 339 340 338 339 339 339 340 339 339 335 333 336 337 337 338 337 337 337 336 336 336 335 336 336 337 336 335 331 323 320 322 325 331 332 331 331 331 331 329 329 329 329 328 327 327 327 327 327 327 325 325 326 326 325 324 325 324 324 324 322
320 322 329 335 337 337 339 340 337 335 332 329 328 327 328 324 321 322 325 323 320 322 321 322 322 319 322 328 338 333 330 334 332 335 338 340 341 340 339 338 338 338 340 339 339 339 335 334 335 336 336 337 337 336 337 336 336 336 336 335 336 337 336 336 336 327 319 318 321 328 331 330 331 331 331 328 328 329 328 328 328 327 326 327 327 327 325 324 325 324 322 322 324 323 323 322 319
320 325 333 338 334 338 341 339 340 338 337 335 330 329 329 324 321 322 323 323 320 321 321 320 321 321 324 331 338 333 331 334 333 337 339 340 340 340 339 338 338 338 339 338 339 338 336 334 334 334 334 335 335 335 336 336 335 336 335 335 335 336 337 336 337 332 321 316 318 326 328 329 329 330 329 326 325 326 328 328 329 328 327 327 327 327 325 324 323 322 322 322 323 322 322 320 318
327 332 331 335 336 339 339 338 342 343 341 337 335 333 327 323 320 321 321 320 320 319 321 318 321 332 331 336 341 333 331 334 335 338 339 340 340 341 340 339 338 338 338 338 338 339 337 335 334 333 331 332 332 333 336 336 335 335 335 334 335 336 337 336 337 335 325 314 316 324 326 328 329 327 324 321 321 321 323 327 329 329 329 327 326 326 325 324 323 322 320 320 321 321 322 320 318
327 336 335 336 341 340 339 342 343 343 345 341 342 333 320 319 319 320 321 319 320 319 322 318 322 333 335 346 343 331 332 335 335 337 339 340 340 341 340 340 339 338 338 337 338 339 338 335 335 334 331 330 330 331 334 335 335 334 334 334 335 336 336 336 337 336 330 321 317 320 323 327 327 322 318 318 320 317 316 320 324 327 328 328 327 326 325 324 323 323 321 319 319 319 320 320 318
326 338 339 337 341 342 340 344 343 342 346 346 342 324 313 318 319 320 321 319 319 319 321 318 325 327 329 343 336 331 335 335 335 338 339 340 340 341 340 340 339 339 338 337 338 338 338 336 336 335 332 330 331 332 331 333 335 334 334 333 333 335 336 336 336 337 334 330 323 320 320 323 324 320 317 320 321 319 316 315 318 321 323 325 327 326 326 325 323 324 323 321 320 318 317 317 317
326 336 337 332 336 343 344 341 339 338 342 347 338 319 313 317 318 320 320 319 319 320 317 316 326 326 325 333 333 343 342 333 336 338 339 340 340 341 340 340 339 338 337 337 338 338 337 336 336 335 332 332 332 333 332 330 332 333 333 332 332 333 335 336 336 337 335 334 330 323 319 320 321 320 319 322 322 322 321 319 318 318 318 320 321 322 324 325 325 324 324 323 322 321 319 316 314
322 336 340 335 336 338 339 337 338 338 341 342 329 317 315 316 316 319 319 320 320 318 314 313 320 319 323 329 330 345 339 332 337 338 338 339 339 340 340 340 339 338 337 337 338 338 337 336 337 335 333 332 332 333 333 331 330 331 330 330 331 333 334 335 336 337 336 335 333 327 321 319 320 321 320 322 323 324 325 324 324 322 322 321 319 318 319 320 321 322 324 324 323 323 324 321 317
325 339 340 334 336 335 333 336 338 338 341 337 325 317 317 317 315 316 316 319 318 317 321 319 318 320 324 327 324 329 332 334 337 338 338 338 338 339 339 339 338 338 337 336 338 338 338 337 337 336 333 330 330 330 331 331 330 330 329 328 328 330 333 334 335 336 336 335 334 331 326 322 321 322 321 322 323 325 327 327 327 326 326 325 324 322 320 319 319 318 320 320 320 321 323 323 321
327 334 335 330 334 333 331 337 339 338 338 332 328 322 319 321 317 316 315 318 320 323 333 331 324 328 332 329 325 326 332 336 337 338 338 338 338 337 337 338 337 337 336 336 337 338 338 338 337 336 332 329 328 326 325 327 329 330 331 329 327 326 327 331 333 335 336 336 336 334 331 326 324 324 322 322 324 326 327 328 328 328 328 327 327 326 325 324 323 321 320 320 319 319 319 319 319
324 330 333 329 330 329 331 337 336 336 332 326 328 324 323 325 319 317 317 321 327 327 335 338 333 331 331 330 328 330 334 335 337 338 337 337 336 336 336 335 336 336 336 336 336 338 338 338 338 336 331 327 326 323 322 324 327 330 330 331 329 325 322 324 330 334 335 336 336 335 333 330 327 326 324 323 324 326 327 328 329 329 328 328 327 327 327 327 325 325 325 324 323 322 323 322 321
325 332 331 325 327 328 331 337 336 333 330 327 327 325 325 324 319 317 318 322 325 327 330 334 338 334 332 331 329 332 333 335 337 336 336 336 336 336 335 335 335 334 334 335 336 337 338 338 338 334 329 324 322 320 321 323 325 328 329 330 329 326 323 322 326 332 334 335 336 336 336 334 331 329 327 326 324 325 327 328 330 330 329 329 328 328 327 327 326 326 326 326 326 326 326 326 325
326 330 327 325 326 326 329 335 337 332 328 328 326 324 324 324 321 317 319 322 322 328 328 328 336 342 343 334 330 332 332 333 335 335 335 335 336 336 335 335 334 334 334 334 336 337 338 337 334 330 326 320 318 317 320 321 321 322 326 328 326 325 325 325 326 328 332 334 335 336 336 336 335 332 331 330 328 326 325 327 329 330 330 330 329 328 328 327 327 327 327 327 327 327 327 327 326
326 326 326 327 326 323 326 331 334 330 325 325 325 324 323 324 323 319 319 321 322 327 326 326 330 340 348 336 330 331 330 331 333 334 334 334 335 335 335 335 334 334 333 333 335 336 336 334 330 327 323 318 316 317 319 319 315 315 318 321 325 328 328 328 328 326 328 332 335 336 336 337 336 335 333 331 331 329 327 326 327 329 330 330 329 328 328 328 328 328 328 328 328 327 327 327 327
325 324 324 328 325 320 323 327 328 326 324 324 324 323 322 322 323 323 321 320 324 324 322 324 324 334 346 338 331 331 330 331 331 331 333 333 334 334 335 335 334 334 332 333 333 334 334 332 330 327 324 322 321 321 321 319 314 312 312 314 325 334 331 328 329 327 325 328 333 336 336 336 335 335 335 333 332 330 330 329 328 329 329 329 328 328 328 328 328 328 328 328 328 328 328 328 328
320 322 323 324 322 320 321 322 322 323 323 322 323 321 322 325 323 324 322 321 324 321 321 321 321 330 338 334 330 333 333 333 331 330 332 332 333 334 334 334 334 333 333 333 332 333 334 333 332 329 327 326 325 325 324 322 316 313 312 314 324 334 331 327 330 329 326 324 328 332 334 335 333 333 335 335 334 331 331 331 331 331 330 329 328 328 328 327 328 328 329 329 329 329 329 329 329
318 321 323 322 320 320 320 320 320 322 321 322 323 319 321 325 324 323 324 327 325 321 322 324 324 327 332 334 333 334 334 332 332 331 331 332 333 333 334 334 333 333 333 332 332 333 334 335 333 331 330 329 328 327 326 324 320 315 314 315 321 330 330 325 326 328 327 323 322 327 331 334 332 331 332 332 332 332 331 332 332 332 331 330 330 329 328 327 327 328 329 330 330 329 329 330 330
319 321 322 321 320 318 321 323 323 322 322 323 320 321 325 326 323 324 328 331 327 325 332 338 337 334 336 338 334 333 333 332 331 332 332 332 332 332 333 333 333 333 332 332 332 332 335 335 334 332 331 330 330 328 327 326 324 319 315 314 315 320 321 317 318 322 323 322 319 320 326 331 332 332 332 331 331 331 332 332 332 332 332 331 331 330 329 328 328 327 327 329 330 329 329 329 329
318 320 321 321 321 317 320 324 324 322 324 323 320 324 327 324 322 324 330 329 327 335 346 345 344 345 340 337 334 333 334 333 331 332 332 332 332 332 332 333 333 332 332 332 332 333 335 335 334 334 332 331 331 329 328 326 325 323 319 316 314 314 314 312 313 315 315 316 317 317 319 324 329 332 333 332 332 331 331 332 332 332 331 331 331 331 330 330 329 327 327 328 329 329 328 328 328
318 320 321 322 321 318 319 321 323 322 323 322 321 325 326 321 321 325 331 328 326 338 353 347 344 351 342 335 335 333 333 332 331 331 332 333 332 332 332 332 332 333 333 333 333 334 334 335 335 334 333 332 331 330 329 327 326 324 322 320 318 316 315 315 314 314 314 313 313 315 317 318 321 326 329 331 332 332 332 332 332 331 330 330 330 330 329 329 329 328 329 329 330 329 329 329 329
319 320 321 325 322 318 318 319 322 321 322 323 321 323 324 321 321 328 329 325 324 328 344 351 351 351 342 337 335 333 333 331 330 331 330 331 332 332 332 332 332 332 333 333 333 334 334 334 335 334 333 332 331 331 330 329 326 323 323 323 322 320 318 318 318 318 317 314 313 314 316 317 317 319 322 325 328 329 329 330 330 330 330 329 329 329 328 328 328 330 330 331 331 330 330 330 330
319 318 320 325 323 319 316 317 320 319 321 323 322 322 323 322 323 330 328 323 324 323 330 346 354 351 340 336 335 334 333 330 330 331 330 331 332 333 333 333 333 332 333 333 333 333 334 334 334 334 333 333 332 331 330 330 328 326 325 326 326 325 323 321 321 321 319 316 316 317 319 319 318 318 318 320 322 324 324 325 325 325 326 327 327 327 327 327 328 330 331 331 331 330 330 329 329
318 316 319 322 322 320 315 313 318 318 321 322 322 324 324 326 328 330 325 319 323 325 326 335 345 348 340 335 335 334 333 331 331 330 331 331 331 332 333 333 333 333 333 332 333 333 334 334 334 334 334 333 332 332 331 330 329 329 329 329 329 329 327 326 325 325 323 321 321 322 323 323 322 320 319 318 318 320 320 321 320 320 321 323 324 324 325 327 328 329 330 330 330 330 329 328 328
319 317 320 322 318 320 317 313 317 317 319 320 321 326 326 328 330 327 320 317 320 324 327 326 329 334 335 334 334 333 332 331 331 331 331 331 331 331 332 332 332 333 333 332 333 333 333 333 333 334 333 333 333 332 332 331 330 330 330 331 330 330 330 329 329 329 328 327 326 326 326 325 325 324 323 321 319 319 318 319 319 318 318 321 322 322 324 328 328 328 328 329 330 329 328 327 327
320 316 321 320 316 322 319 311 315 315 315 318 321 327 329 328 326 321 316 317 319 320 324 323 321 322 323 326 329 331 330 328 329 330 331 331 331 331 331 332 332 332 333 333 333 333 333 333 333 333 333 333 333 333 332 331 331 330 330 331 331 331 331 330 330 330 330 330 330 329 328 327 326 326 326 326 325 323 322 322 322 321 320 319 320 321 324 328 328 328 328 329 330 329 328 327 327
320 319 322 320 318 321 315 310 312 314 315 317 319 322 326 325 318 314 313 315 316 317 319 320 320 319 317 319 323 327 328 328 328 327 329 331 331 331 331 331 331 331 332 332 332 332 333 333 333 333 333 333 333 333 332 332 331 331 331 331 331 331 331 331 331 331 331 331 331 331 330 329 327 327 326 327 327 327 326 326 325 325 323 321 319 320 322 325 327 328 328 329 329 329 328 327 327
319 322 322 318 319 317 315 314 312 313 316 316 316 316 318 319 315 313 312 311 313 314 315 316 317 317 316 316 319 323 324 326 327 323 323 326 327 330 331 331 331 331 331 331 332 332 332 332 332 333 332 333 332 332 332 332 332 331 331 331 331 331 331 331 331 331 331 331 332 331 331 331 329 328 327 327 327 327 327 326 325 326 325 324 322 321 322 324 325 326 327 327 328 327 327 327 326
316 318 318 317 319 319 319 319 314 314 317 316 318 318 316 317 316 314 313 310 310 311 313 314 315 315 316 315 315 319 322 324 323 317 317 319 320 323 326 328 330 330 331 331 331 331 331 332 331 332 332 332 332 332 331 331 331 331 331 331 331 331 331 331 331 332 331 331 331 331 331 331 331 330 329 328 328 327 327 327 326 326 326 326 325 324 324 325 326 326 326 326 326 326 326 326 326
314 315 316 317 321 323 321 321 317 314 316 318 319 317 316 316 316 316 314 311 311 312 313 315 315 315 316 315 315 315 319 322 317 313 314 315 316 317 319 322 324 327 329 330 331 331 331 331 331 331 331 331 332 331 331 330 330 330 330 330 330 331 331 331 331 331 331 331 331 331 331 331 331 330 329 329 328 328 328 327 327 327 326 326 326 326 326 325 325 326 326 326 326 326 326 326 326
316 317 318 318 320 322 320 320 319 314 316 322 319 315 315 315 317 317 314 312 313 314 314 315 316 315 315 316 317 316 317 316 312 311 313 313 314 315 315 317 320 323 326 328 330 330 330 330 330 330 330 330 331 331 331 330 330 329 329 329 329 329 330 330 330 331 331 331 331 331 331 331 331 330 330 330 329 329 329 328 328 327 327 326 326 326 326 325 325 325 326 326 326 326 325 325 325
317 317 319 318 318 319 318 318 319 314 314 320 319 316 315 315 316 316 315 315 314 313 313 314 315 315 315 316 317 317 316 314 312 311 311 311 313 313 313 314 317 321 323 325 327 328 329 330 330 330 329 329 330 330 330 330 330 330 329 329 329 329 329 329 329 329 329 330 330 331 331 331 331 330 330 330 329 329 329 328 328 328 327 326 326 326 326 326 325 325 325 325 325 325 325 324 324
316 316 317 317 316 316 318 318 318 314 312 318 321 317 315 315 315 316 316 315 313 314 314 315 317 317 316 316 315 316 316 316 315 313 311 310 311 312 312 312 314 317 320 323 325 327 328 329 330 330 330 330 329 329 329 329 329 329 329 329 329 329 329 329 328 328 328 329 329 330 330 330 330 330 330 329 329 329 329 329 328 328 327 327 326 326 326 326 325 325 325 325 324 324 324 324 324
314 314 315 316 314 313 316 317 316 314 311 315 318 316 316 316 316 318 315 312 313 314 314 314 317 318 317 316 315 315 315 314 314 313 311 310 310 311 311 312 312 314 316 319 322 325 327 328 329 329 330 330 330 330 329 329 329 329 329 329 329 329 329 329 329 329 329 329 329 329 329 329 329 329 329 329 329 328 328 328 328 327 327 327 326 326 326 325 325 325 325 325 324 324 323 323 324
313 313 313 314 313 312 314 314 313 315 313 313 315 318 321 316 315 318 314 313 314 313 314 314 314 315 316 315 314 313 313 313 312 312 311 310 309 310 310 310 311 311 312 314 316 320 324 326 328 328 329 330 330 330 330 329 329 329 329 329 329 329 329 329 329 329 329 329 329 329 329 329 329 329 329 328 328 328 328 328 327 327 327 327 326 326 326 325 325 325 324 325 324 324 324 323 324
313 311 311 312 313 313 315 315 313 318 316 312 314 320 324 318 314 315 314 315 316 313 314 314 311 311 312 311 310 310 311 311 311 310 309 309 309 309 309 309 310 310 311 312 312 315 318 322 326 328 329 330 330 330 330 330 330 329 330 329 329 329 329 329 329 329 329 329 329 329 329 329 329 329 328 328 328 328 328 328 327 327 327 327 326 326 326 325 325 325 325 325 324 324 324 323 323
313 310 310 312 313 313 316 316 315 318 313 310 316 320 321 319 316 316 315 318 319 314 312 312 310 310 310 309 309 309 309 309 309 309 309 308 308 309 309 309 309 309 310 311 311 312 314 317 322 326 328 329 330 330 331 330 330 330 329 330 330 329 329 329 330 330 329 329 329 329 329 328 328 328 328 328 328 328 328 327 327 327 327 327 326 326 326 326 326 326 325 325 325 325 324 323 323
312 309 310 313 315 315 316 317 317 318 314 314 319 318 316 319 320 317 316 319 319 314 311 311 310 309 309 308 308 308 308 308 308 309 308 308 308 309 309 309 309 309 309 310 310 311 312 313 317 323 327 328 329 330 331 331 330 330 330 330 330 330 330 330 330 330 329 329 329 329 329 328 328 328 328 328 328 328 328 328 327 327 327 327 327 326 326 326 326 326 325 325 325 325 325 324 324
312 309 310 313 315 316 316 318 321 320 316 316 318 315 314 317 320 318 318 319 316 313 312 311 310 309 308 308 307 308 307 308 308 308 308 307 307 309 310 310 310 309 309 309 309 310 311 313 315 320 324 327 329 329 330 331 331 331 330 330 330 330 330 330 330 330 329 329 329 329 328 328 329 328 328 328 328 328 328 328 328 328 328 327 327 327 327 326 326 326 325 325 325 325 325 324 324
310 309 311 314 314 315 317 319 323 322 318 316 316 315 314 316 320 320 319 319 314 312 311 310 309 308 307 307 306 306 306 307 307 307 307 306 306 308 309 310 310 310 310 309 310 311 312 313 315 319 323 325 327 329 329 330 331 331 330 330 330 330 330 330 330 330 329 329 329 329 329 329 329 329 329 329 329 329 329 329 329 329 329 328 328 327 327 327 326 326 326 326 325 325 325 324 324
310 312 315 317 316 316 317 317 318 320 318 315 314 315 315 316 320 319 317 314 311 311 311 308 308 307 306 305 305 305 305 305 306 306 306 306 306 307 308 309 309 310 311 311 312 313 314 314 314 318 322 324 326 328 329 329 330 330 330 330 330 330 330 330 329 329 329 329 329 329 329 329 329 329 329 329 329 329 329 329 329 329 329 328 328 328 328 328 327 327 326 326 325 325 325 324 324
311 316 315 315 314 314 316 316 315 318 317 314 312 314 315 316 319 319 315 312 310 310 309 308 308 306 304 304 303 304 304 305 305 305 305 305 305 306 307 308 308 308 309 311 312 313 314 315 315 316 319 323 326 327 328 329 329 330 330 330 330 330 330 330 329 329 329 329 329 329 329 328 328 329 329 329 329 329 329 329 329 329 329 329 328 328 328 328 327 327 327 326 326 325 325 325 324
313 318 316 314 312 311 314 312 312 316 315 311 310 311 312 314 317 318 315 312 310 308 307 307 307 305 303 303 303 303 303 304 304 304 304 305 304 305 306 307 307 307 308 309 310 311 312 313 314 315 316 319 323 325 328 328 329 329 329 330 330 330 330 329 329 329 329 329 329 329 329 329 329 329 329 329 329 329 329 329 329 329 329 329 328 328 328 328 328 327 327 326 326 326 325 325 324
311 313 313 314 312 311 313 309 309 313 310 306 308 310 313 315 314 313 313 311 308 306 306 306 305 304 302 302 302 302 303 303 303 304 304 304 303 303 305 306 306 306 306 307 308 310 310 311 312 313 314 316 318 321 324 326 328 329 329 330 330 330 330 329 330 329 330 330 329 329 329 329 329 329 329 329 329 329 328 328 329 328 328 328 328 328 328 328 328 328 327 326 326 326 326 325 325
310 310 311 314 312 311 313 310 309 312 309 307 309 310 315 316 311 308 308 307 306 304 304 304 303 302 301 301 302 302 302 302 302 303 303 303 302 302 304 305 305 305 305 306 307 308 309 310 311 311 312 313 315 316 319 321 324 326 328 329 329 330 330 330 330 330 330 330 329 329 329 329 329 329 329 329 329 329 328 328 328 328 328 328 328 328 328 328 328 328 327 327 326 326 326 325 325
309 309 311 312 309 310 312 310 309 311 310 311 312 312 314 313 309 308 305 304 303 303 303 302 301 301 301 301 301 301 301 302 302 302 302 302 302 302 303 304 304 304 304 305 305 306 307 308 310 310 311 311 312 313 315 316 318 321 323 325 327 328 329 329 329 330 330 330 330 329 329 329 329 329 329 329 328 328 328 328 327 327 327 327 328 328 328 328 328 328 327 326 326 326 326 325 325
309 309 309 307 305 308 311 309 308 309 311 312 313 314 313 310 308 308 305 303 302 301 301 300 300 300 300 301 301 301 301 301 302 302 302 301 301 302 302 303 303 303 304 304 304 305 306 306 307 309 310 311 312 311 312 313 314 316 317 319 321 323 325 327 328 328 329 329 329 328 328 328 328 328 328 328 328 327 327 327 327 327 327 327 327 327 327 327 327 327 327 326 326 326 325 325 325
309 309 307 304 303 307 310 309 309 308 310 311 312 314 312 309 308 307 304 302 301 300 300 299 300 300 300 301 301 301 301 301 302 301 301 301 301 301 302 302 302 302 303 304 304 304 305 305 305 306 308 310 312 312 311 311 311 312 313 314 315 317 319 321 323 324 325 326 327 327 327 327 327 327 327 327 327 327 327 326 326 326 326 326 326 326 327 327 327 327 327 326 326 326 325 325 325
308 307 305 305 305 308 309 309 308 307 307 309 309 309 308 309 309 307 304 301 300 300 299 299 300 300 300 300 300 301 301 301 301 301 301 301 301 301 301 301 302 302 303 303 303 304 304 304 304 304 305 306 309 311 312 312 311 311 311 311 312 313 314 315 317 318 319 321 322 323 324 325 325 326 326 326 326 326 326 326 326 326 325 326 325 325 326 326 326 326 326 326 326 325 325 325 325
306 305 304 306 307 308 307 306 307 307 307 307 307 308 308 311 311 305 301 300 299 299 299 299 300 300 300 300 300 301 301 301 301 301 301 301 300 301 301 301 301 302 302 302 302 303 303 303 303 303 304 304 305 308 310 311 311 311 311 311 311 312 312 313 314 314 315 316 317 317 318 319 320 321 322 323 324 324 325 325 325 325 325 325 325 325 325 325 326 326 325 326 325 325 325 325 325
304 303 303 304 305 305 305 305 306 307 307 305 305 306 306 308 308 303 299 299 299 299 299 299 300 300 300 300 301 301 301 301 301 301 300 300 300 300 300 301 301 301 301 301 301 302 302 302 302 302 303 303 304 305 307 309 310 310 310 310 311 312 313 313 314 314 315 315 315 315 316 316 316 317 317 319 320 322 322 323 323 324 324 324 324 325 325 325 325 325 325 325 325 325 325 325 326
302 303 303 303 303 303 304 304 304 305 304 303 303 304 305 304 302 299 298 298 299 299 299 299 300 300 300 301 301 301 300 300 300 300 300 299 299 300 300 300 300 300 301 301 301 301 301 301 301 301 302 302 303 303 304 306 308 309 310 309 310 311 312 313 314 315 315 315 316 316 316 316 316 316 316 316 318 319 321 322 323 323 323 324 324 324 324 325 325 325 325 325 325 325 325 325 325
Wind_Speed
19 20 21 21 11 2 2 3 2 2 2 0 3 1 4 4 1 3 5 3 1 2 3 2 5 6 4 3 7 6 5 7 6 5 3 4 2 15 22 11 20 34 36 35 31 29 27 24 23 22 20 19 17 16 16 15 15 16 16 15 16 17 14 13 14 13 11 12 10 7 9 10 11 11 11 10 9 9 7 5 5 6 5 6 5 5 6 6 6 7 6 5 5 5 5 6 6
20 20 21 17 5 4 1 3 2 3 3 2 3 3 4 4 2 5 6 5 4 3 3 3 5 3 4 3 4 3 2 4 5 4 3 1 5 16 19 11 24 35 36 34 31 30 27 25 23 22 20 19 18 16 17 15 15 14 15 14 15 16 14 14 14 13 11 12 11 9 8 8 10 11 9 8 7 7 7 5 5 6 6 6 6 6 6 6 5 5 5 4 4 5 5 5 5
19 19 20 11 1 2 1 3 1 1 2 3 5 4 3 2 4 8 8 8 5 4 2 3 4 3 4 4 2 2 2 2 3 2 2 4 7 14 16 13 27 35 35 33 31 30 27 25 24 23 20 19 18 16 17 16 15 14 14 13 13 15 14 13 13 13 12 11 12 11 10 10 10 9 8 6 5 6 6 6 6 6 6 6 5 5 6 7 6 5 5 5 4 5 5 6 5
17 17 16 5 1 3 4 3 1 4 2 3 3 5 3 4 8 8 8 7 5 3 1 2 1 1 2 0 1 0 2 3 2 3 1 5 6 13 16 17 30 34 33 32 30 29 27 26 24 23 21 19 18 16 16 17 16 14 14 12 12 13 14 12 11 13 13 11 12 11 11 12 11 9 8 7 6 6 6 6 7 6 6 6 5 5 6 6 6 6 5 5 4 5 5 6 6
15 14 10 3 2 1 3 1 2 3 4 4 2 5 5 6 7 8 7 6 4 2 0 2 0 1 2 1 1 0 2 3 2 5 3 5 7 15 17 22 32 32 33 31 29 29 26 25 24 23 21 19 19 18 16 16 16 15 14 13 13 12 13 12 11 13 14 12 12 12 11 11 10 9 8 8 7 7 7 7 7 7 7 6 5 6 6 5 4 5 5 5 5 5 5 6 7
13 10 5 4 2 1 3 1 2 2 5 5 3 6 6 7 6 6 6 5 3 2 2 2 0 1 1 1 1 2 2 1 2 4 5 7 12 17 18 25 31 30 31 30 29 28 25 25 24 23 22 19 19 18 17 16 15 14 14 13 14 13 11 12 11 12 14 12 12 12 11 10 10 9 8 9 9 8 8 7 7 6 6 6 6 6 6 5 4 5 5 5 5 5 6 7 8
11 7 3 4 1 1 3 3 4 4 4 6 5 5 6 6 5 3 4 2 0 2 0 1 1 3 0 2 1 2 1 1 3 2 5 11 16 19 21 27 29 29 30 29 29 27 25 24 24 23 22 20 18 18 17 16 16 15 14 13 14 14 12 11 10 11 13 12 12 12 11 11 10 10 9 10 10 9 8 7 6 6 6 5 5 5 5 5 5 5 5 4 5 5 5 6 7
5 3 1 2 0 2 3 2 3 4 4 4 5 6 7 6 4 2 1 1 1 2 2 2 1 3 2 1 0 3 3 1 3 2 7 14 19 21 23 28 28 28 29 29 28 26 25 24 24 23 22 20 18 18 17 16 17 16 14 13 13 14 13 12 10 10 12 12 13 13 12 12 11 11 10 10 10 9 8 7 6 6 6 6 5 5 5 5 5 5 5 5 5 4 4 5 6
3 2 0 2 1 1 0 2 3 3 4 5 5 7 7 4 3 3 3 3 2 1 3 3 3 1 3 2 2 4 4 3 3 5 11 16 20 22 25 29 28 29 28 28 28 26 25 24 24 23 23 21 18 17 16 17 16 16 15 14 13 13 14 14 12 10 11 12 13 14 13 12 12 11 10 11 10 9 8 7 6 6 6 6 5 4 4 5 5 5 5 5 5 4 4 4 5
2 2 1 1 1 1 3 2 3 3 5 5 6 8 7 4 4 4 5 4 3 1 3 2 3 0 2 2 2 2 4 3 5 10 14 18 21 23 26 28 27 29 27 28 28 26 26 25 24 23 22 21 20 18 17 17 16 16 16 15 13 13 14 14 13 11 11 12 13 14 14 13 12 12 11 10 10 10 9 8 7 6 6 7 6 5 5 4 4 5 5 5 5 5 5 5 5
1 3 2 1 1 2 4 3 3 4 5 5 6 8 7 5 5 3 3 3 3 1 2 3 2 2 2 1 3 1 3 1 9 14 16 19 22 23 25 26 26 27 27 28 28 27 26 25 24 22 22 21 20 20 19 18 17 16 16 16 14 13 13 14 14 13 11 12 13 14 14 13 12 12 11 9 9 10 10 10 9 8 7 7 7 6 6 5 5 5 6 6 6 6 6 6 6
2 2 3 2 2 4 4 3 4 5 6 4 5 6 2 6 6 5 5 3 1 1 4 3 2 4 3 3 4 3 2 5 10 14 18 20 23 23 23 24 24 25 26 27 28 27 26 25 24 22 22 20 19 20 20 19 18 17 17 16 15 13 13 14 15 15 13 11 13 14 14 13 12 12 11 10 9 8 9 10 10 10 9 8 7 7 6 6 6 6 6 6 7 7 6 6 6
3 2 5 2 3 3 3 2 4 3 5 3 4 5 2 6 4 6 7 4 2 2 6 5 3 3 1 3 3 5 3 8 12 16 20 21 23 23 22 23 23 24 24 26 27 27 27 25 24 23 21 20 19 19 20 21 19 17 18 18 17 15 14 14 15 16 15 13 12 13 14 14 12 12 12 11 9 7 7 8 9 10 10 10 9 8 7 7 7 7 7 7 8 7 7 7 7
4 3 5 2 1 3 3 2 3 1 4 5 4 2 1 2 3 4 8 4 5 5 3 3 6 3 2 2 4 5 4 10 14 18 20 21 23 22 21 22 23 24 23 25 27 28 28 26 25 24 22 21 20 19 19 20 21 19 19 19 19 17 15 14 15 16 16 15 14 13 14 14 13 13 13 12 10 8 7 7 7 8 8 9 9 10 10 9 9 8 8 8 9 9 8 9 9
4 2 4 3 1 2 3 3 2 3 4 5 2 1 2 2 4 4 5 6 7 5 1 0 4 3 2 3 4 5 7 13 17 20 21 21 21 21 21 22 22 23 23 25 27 28 28 27 26 25 24 23 22 21 19 19 20 20 19 19 20 19 16 14 14 15 17 17 16 15 15 14 14 14 13 13 11 10 8 7 6 6 6 6 7 8 9 10 10 9 9 10 10 9 9 10 11
3 3 4 3 3 3 4 3 3 2 3 5 2 2 1 4 4 4 4 5 2 2 1 1 2 1 3 6 4 6 10 17 19 21 21 20 19 19 20 21 22 23 23 25 27 29 28 28 27 26 25 24 23 22 21 20 19 18 18 18 19 20 19 16 15 15 16 17 18 17 16 15 15 14 14 14 12 11 10 8 7 7 7 7 7 7 7 8 9 10 10 11 11 10 11 11 11
2 3 3 4 4 4 5 4 4 3 3 4 4 3 2 4 1 2 1 3 2 1 2 2 1 1 4 5 6 2 15 21 22 22 20 19 18 17 18 20 21 22 23 25 28 29 29 29 28 27 26 25 24 23 22 22 21 19 18 19 18 18 19 19 18 16 16 17 19 19 18 17 17 16 16 15 14 13 11 10 9 9 9 9 9 9 8 9 9 10 10 10 11 11 11 12 12
1 3 3 5 5 5 6 6 6 3 2 2 2 2 3 3 3 1 2 4 2 1 2 2 3 2 3 4 3 10 21 23 23 23 19 18 18 17 18 20 21 22 24 26 28 29 30 29 28 27 27 26 25 23 22 22 22 21 20 20 19 18 18 20 21 19 17 17 18 20 20 19 18 18 17 16 15 14 13 12 11 11 11 11 11 11 11 11 11 11 11 11 11 11 11 12 12
2 3 3 6 5 5 6 7 6 3 3 2 1 1 3 3 2 1 1 4 3 1 3 4 5 5 2 2 7 17 21 23 24 22 19 19 20 20 19 20 20 22 24 26 28 29 30 29 28 28 27 27 26 24 23 22 23 23 22 21 20 19 17 19 21 21 18 17 18 20 21 21 20 19 18 17 16 16 15 14 14 13 13 13 13 13 13 13 13 12 13 13 13 13 13 14 14
1 3 4 6 4 4 4 6 6 4 3 0 2 0 3 2 2 1 1 2 2 4 5 1 4 8 2 2 9 15 17 19 20 20 19 19 20 22 23 23 23 24 26 27 28 30 30 30 29 28 27 27 26 24 23 23 24 24 25 23 20 19 18 17 19 21 20 18 18 20 22 22 21 20 20 18 17 18 17 17 17 16 16 15 15 15 15 15 14 14 15 15 15 15 16 16 16
1 2 4 5 4 4 4 6 6 3 2 1 2 3 4 1 0 2 3 0 3 5 6 5 8 7 5 5 7 11 14 14 16 18 17 18 19 20 24 26 26 25 25 25 27 30 31 30 29 27 26 26 25 25 24 23 21 23 25 23 19 19 19 18 19 21 22 20 18 18 21 22 21 21 21 21 21 21 21 20 20 19 19 18 18 18 18 17 17 17 17 17 17 17 18 18 19
1 2 2 3 3 3 2 4 4 2 1 1 2 4 3 1 1 3 4 2 5 5 4 6 7 5 7 8 8 9 9 10 13 15 16 17 19 19 21 23 23 21 22 24 28 30 31 30 29 28 27 26 25 24 24 22 20 21 23 21 18 20 21 21 21 21 22 22 21 19 20 21 23 22 22 22 22 23 23 23 22 22 22 21 20 20 20 20 19 19 19 20 20 20 20 21 21
2 2 2 3 1 2 2 2 1 0 2 1 3 3 1 3 3 2 5 6 7 4 4 6 6 6 8 7 9 9 9 10 12 16 19 20 21 22 23 24 24 23 24 26 28 30 31 31 30 28 27 26 25 24 24 22 21 22 22 20 20 21 23 23 25 24 22 24 25 24 22 22 24 24 24 23 23 24 24 23 23 23 23 23 22 22 22 22 21 20 20 21 21 21 22 22 22
1 2 4 5 3 1 3 3 1 2 4 4 2 2 2 0 3 1 3 8 6 3 3 4 3 6 8 7 9 10 11 12 14 19 22 22 24 25 24 24 25 24 24 26 28 29 31 32 31 30 28 27 25 25 25 24 23 23 22 22 23 23 24 25 26 25 24 24 26 27 26 25 25 25 25 26 25 25 26 24 22 22 23 24 23 23 23 23 23 22 21 21 21 21 22 23 24
2 2 5 5 4 2 4 3 1 2 2 2 1 2 5 5 1 1 6 9 4 3 2 1 3 6 7 7 9 9 9 11 13 17 18 18 19 19 19 21 22 23 25 28 28 30 32 32 32 31 30 28 26 25 25 26 25 24 24 25 26 26 26 26 25 25 25 25 26 28 29 29 28 26 27 28 26 26 26 25 23 23 24 24 24 24 24 24 25 24 23 22 22 22 23 24 25
1 2 5 5 5 4 4 2 3 1 2 2 1 5 6 3 0 2 9 9 3 3 4 3 5 5 5 6 7 7 7 10 11 12 14 14 14 16 18 20 22 25 28 28 28 30 32 32 33 32 31 29 27 26 26 27 26 26 27 26 27 27 27 26 25 25 25 26 27 28 29 31 31 30 30 29 28 27 27 27 26 26 26 25 25 25 25 25 25 25 24 23 24 24 24 24 24
1 3 4 5 5 4 2 1 3 3 1 3 3 6 5 2 0 2 8 6 1 5 5 3 3 4 4 5 5 5 6 9 10 8 9 11 15 18 20 21 24 27 27 28 29 31 31 32 33 33 32 30 28 28 27 27 28 28 29 28 28 28 28 27 26 26 27 27 27 27 29 30 32 32 32 30 29 29 29 29 29 28 28 27 27 27 27 26 26 25 24 24 24 25 25 25 24
2 2 4 6 5 3 0 1 2 2 1 3 4 4 3 2 1 5 8 4 1 4 3 1 2 3 4 5 5 4 6 9 9 8 10 14 20 22 22 25 26 26 27 29 29 29 31 32 33 33 33 31 30 30 29 28 29 29 29 29 29 29 29 29 28 28 29 28 27 27 27 28 30 31 32 32 31 32 32 32 32 31 30 29 28 29 28 27 26 26 25 25 25 25 26 26 26
1 2 2 7 6 4 3 1 1 1 1 4 4 3 4 1 3 8 8 4 4 4 3 2 3 4 3 4 4 5 7 7 8 12 18 22 24 23 26 28 26 26 29 29 28 29 32 33 33 34 33 33 32 32 31 30 30 29 29 30 29 29 29 29 29 30 30 29 28 27 27 27 28 29 31 32 33 33 33 33 33 33 32 31 30 29 29 28 27 26 26 26 26 26 27 28 27
0 2 2 4 5 3 4 3 2 1 2 3 4 2 4 4 6 9 6 6 6 6 6 4 4 4 4 4 4 5 7 7 10 17 22 24 23 23 26 28 26 27 28 27 28 31 33 33 33 34 34 35 34 33 33 32 32 31 31 30 30 30 29 29 30 30 30 29 29 28 28 27 27 28 29 30 31 32 33 33 34 34 34 32 31 30 29 29 28 27 26 26 27 27 28 28 28
1 2 2 3 1 3 5 4 3 1 1 1 4 3 4 5 7 7 6 7 5 5 7 6 4 4 4 3 4 5 5 6 11 16 20 21 21 22 25 26 26 27 27 27 30 32 32 33 33 34 35 36 36 35 35 34 34 33 32 32 32 31 31 31 31 31 30 29 29 29 28 28 27 27 27 28 29 31 32 33 34 34 34 33 32 31 30 30 29 28 27 27 28 28 29 29 28
3 2 2 3 1 3 6 5 5 3 3 3 3 4 5 5 6 7 7 6 6 5 7 7 7 6 5 4 4 4 5 7 11 15 19 22 22 23 25 26 26 27 29 30 31 30 31 33 34 35 35 36 37 37 37 36 35 35 35 35 34 34 33 33 33 32 31 30 30 30 29 28 28 28 28 28 28 30 31 32 32 32 32 32 32 32 31 31 30 29 28 28 29 29 29 29 29
4 3 1 2 1 2 4 3 6 6 4 5 3 1 3 5 7 9 7 6 7 6 6 7 7 6 5 4 4 5 5 6 8 13 20 23 24 24 25 26 26 27 29 30 30 31 32 33 34 35 36 37 38 38 37 37 36 36 36 36 36 35 35 35 35 34 34 33 33 32 31 30 29 29 29 29 29 30 31 32 31 30 29 30 31 31 31 32 31 30 30 30 29 29 29 29 29
3 3 3 1 1 1 1 3 6 8 6 5 5 2 3 7 10 11 8 6 6 6 7 8 7 7 6 4 4 5 6 6 7 12 16 18 20 21 23 26 27 27 28 29 30 31 32 33 34 35 36 36 36 37 37 37 37 36 36 36 36 37 37 37 36 36 36 36 36 35 33 32 32 31 31 31 31 32 32 32 32 30 29 29 29 31 31 31 30 30 31 30 29 29 30 30 30
1 3 3 2 3 1 1 3 4 8 7 5 6 4 4 8 10 12 11 8 6 5 6 7 7 6 6 5 4 4 5 6 9 14 16 15 16 18 19 22 25 27 28 29 29 30 32 33 33 34 35 36 36 36 35 36 35 35 35 35 36 37 37 37 37 38 38 38 38 37 36 35 34 34 33 33 33 34 34 34 33 32 31 30 30 31 31 31 30 30 30 30 29 29 30 29 29
4 3 3 2 1 1 4 4 3 5 6 5 4 3 5 7 8 10 12 9 7 6 5 6 7 6 6 5 5 4 5 6 9 16 18 16 15 15 16 18 21 24 26 28 28 29 31 32 32 33 35 36 35 35 34 32 32 33 33 33 35 36 37 37 38 39 39 39 39 39 38 38 37 36 35 35 35 35 35 35 34 33 33 32 33 33 32 32 31 31 31 30 30 30 30 29 28
4 4 3 2 1 2 4 5 4 4 3 4 4 4 5 5 7 9 9 9 8 8 7 7 8 8 7 7 7 7 5 6 10 16 17 16 15 16 16 16 17 19 22 25 27 28 31 31 31 34 35 35 35 35 34 33 33 32 31 33 35 35 35 36 38 39 40 40 40 39 39 39 38 38 37 37 37 37 36 36 35 35 34 34 35 35 33 32 31 31 30 29 29 29 29 27 25
4 3 3 3 2 2 4 4 5 5 3 4 6 7 7 6 7 8 8 7 7 7 7 7 8 8 7 7 8 8 7 7 9 13 17 18 19 20 21 19 15 16 19 21 24 28 30 30 31 34 33 33 36 37 35 36 36 34 33 34 35 34 34 35 37 39 39 40 39 39 40 39 39 38 38 37 37 37 37 37 37 36 36 36 36 35 34 32 32 30 29 28 27 27 28 25 21
4 3 3 2 2 3 5 4 5 5 3 4 7 6 7 8 7 8 7 5 5 5 4 5 6 7 7 7 8 8 9 9 9 11 14 18 20 22 23 23 19 16 17 19 22 25 26 28 31 33 32 33 36 36 37 38 36 35 35 34 33 32 33 34 36 37 37 38 39 39 39 39 39 38 38 37 37 38 38 38 38 36 35 35 35 35 34 33 32 31 30 29 27 26 26 23 21
4 3 4 1 3 2 2 4 6 5 1 2 6 4 5 6 6 6 5 3 4 5 4 4 3 4 6 6 6 7 8 10 10 10 11 15 19 21 22 23 22 20 19 19 19 21 24 28 31 32 32 34 34 35 37 37 35 34 34 33 32 30 31 31 32 34 36 36 37 37 38 38 38 38 38 38 38 38 38 38 37 36 36 35 35 35 34 34 33 32 31 30 28 25 23 21 20
3 3 4 1 4 1 3 4 6 5 3 2 4 4 4 5 7 7 5 4 4 5 6 6 4 3 5 6 7 6 6 7 9 11 12 13 16 20 22 22 23 23 22 22 21 20 22 26 29 31 31 32 33 34 35 34 31 30 29 28 27 28 28 27 28 33 34 34 36 36 36 36 36 37 37 37 38 38 38 38 37 36 36 35 35 35 36 35 33 32 31 30 30 28 24 21 19
3 1 1 3 4 3 5 5 4 4 4 4 5 4 4 5 6 6 6 6 7 6 7 9 9 8 8 9 10 9 9 8 8 11 12 14 17 21 23 23 24 26 28 27 26 24 23 25 27 28 30 31 32 33 32 31 30 29 28 27 26 26 26 28 33 35 32 31 34 34 34 35 35 35 35 35 36 36 37 37 36 36 36 36 36 36 36 35 33 33 32 31 30 30 26 23 21
2 1 2 3 2 2 4 3 3 2 2 3 5 4 3 6 6 6 5 7 8 7 9 10 10 11 11 10 10 10 11 11 11 12 14 16 20 23 24 26 26 27 31 32 30 28 27 26 25 26 28 30 31 31 31 30 30 31 31 31 31 28 28 32 35 33 29 29 30 30 30 31 31 32 33 33 34 34 35 35 35 36 36 36 35 34 35 35 34 33 32 31 30 29 27 26 24
1 2 1 1 1 2 1 3 3 1 1 4 5 3 1 3 4 6 6 6 8 10 12 13 12 13 13 12 12 12 12 12 12 14 16 18 21 24 26 29 30 29 31 32 31 31 29 28 26 24 25 28 30 30 30 31 32 33 33 33 33 32 32 35 33 28 27 27 28 29 29 28 29 29 30 30 31 32 32 33 34 34 35 35 34 34 35 35 33 32 31 30 30 28 28 29 26
1 3 1 1 1 1 2 4 1 1 3 4 6 3 2 3 5 6 5 5 8 12 12 12 12 13 14 13 14 14 13 12 13 14 15 18 23 27 28 30 32 31 31 31 31 31 30 28 26 22 23 25 28 28 29 31 32 33 33 32 32 33 35 35 32 29 27 26 27 29 28 28 29 28 29 29 29 29 30 31 31 32 34 34 33 34 34 34 33 32 31 30 30 30 30 30 28
4 3 2 2 3 3 3 4 1 3 4 2 5 4 2 3 5 5 4 6 7 9 9 9 10 11 12 13 13 14 14 13 13 13 15 19 24 27 29 31 34 34 32 31 32 31 29 28 25 22 21 22 25 26 28 30 32 32 32 32 32 33 33 32 30 29 29 28 28 29 29 29 29 28 29 29 28 28 29 29 30 32 33 32 32 33 34 34 33 32 31 31 30 30 29 29 29
3 4 4 3 5 4 3 3 3 5 3 3 4 4 2 1 4 3 0 3 5 6 7 9 10 11 13 13 13 13 13 12 12 13 15 22 27 30 32 34 37 38 36 36 36 34 32 29 25 22 21 20 21 24 26 28 30 31 32 32 32 33 32 29 27 29 29 28 29 30 29 29 28 28 29 29 28 28 28 28 29 30 31 31 31 32 33 33 32 32 31 31 30 30 29 28 29
2 4 3 3 4 4 4 4 4 4 2 5 4 3 2 2 3 4 2 2 6 6 6 8 10 11 13 12 12 12 11 11 12 12 14 19 23 29 32 34 36 39 39 39 38 38 37 33 29 25 22 20 19 21 23 26 28 30 32 32 33 34 33 29 28 29 29 28 28 29 28 27 27 27 27 28 28 28 28 29 29 29 30 31 31 31 32 32 31 32 32 31 31 30 29 28 28
5 3 4 4 2 4 4 3 2 1 3 4 5 4 2 2 5 5 5 6 7 5 4 5 7 10 13 12 12 11 10 11 12 11 12 13 15 21 26 28 32 36 37 38 38 38 38 37 35 31 27 22 18 18 20 23 25 28 30 32 33 33 32 31 30 31 31 29 28 28 28 27 28 28 28 29 29 29 29 29 29 30 31 32 32 31 32 32 32 32 32 32 31 30 30 30 29
5 3 4 3 2 3 1 2 2 1 4 5 4 4 1 2 3 2 2 4 5 5 5 4 6 10 11 11 11 11 12 12 12 11 12 12 14 19 23 25 28 31 35 37 37 37 38 38 38 36 34 29 22 17 16 19 22 25 28 30 32 32 32 31 31 32 32 31 29 29 30 30 29 30 30 31 31 30 30 30 30 30 31 31 31 31 32 32 32 32 32 32 31 31 30 29 29
3 1 4 3 3 3 2 1 1 2 3 5 4 3 1 2 0 3 2 2 3 4 6 7 9 11 11 11 12 14 15 14 12 12 13 14 18 22 24 26 28 30 33 35 36 37 37 38 38 36 35 33 29 23 18 16 18 20 23 26 28 29 31 31 31 32 32 32 31 31 31 31 31 32 33 33 32 31 30 30 30 30 30 30 31 31 31 31 31 32 32 31 31 30 29 29 28
2 1 3 2 1 2 2 2 3 2 1 3 2 0 3 2 1 2 2 5 8 9 11 13 15 14 13 13 14 14 14 14 13 14 14 16 22 25 25 27 29 31 33 34 35 36 36 36 37 37 36 35 32 28 24 20 18 18 18 21 24 26 28 29 31 32 33 33 33 32 32 33 33 34 33 33 32 31 31 30 29 30 30 29 30 30 30 30 30 31 31 31 30 30 29 29 28
2 2 2 2 1 2 2 1 1 3 2 2 1 1 4 3 2 4 8 12 16 16 15 15 14 15 15 14 13 13 13 14 14 13 13 16 22 26 27 29 31 33 35 35 37 36 35 34 35 36 37 37 35 32 29 25 23 21 19 18 19 22 24 26 29 30 31 31 31 31 32 32 33 33 33 32 31 30 30 29 29 29 29 29 30 30 30 30 29 30 30 30 30 30 29 29 28
3 3 2 2 1 2 3 2 2 4 1 2 2 1 4 4 2 5 12 16 18 19 19 18 17 18 17 14 14 14 14 14 14 15 16 19 23 27 30 32 33 35 36 36 38 38 38 37 35 35 35 35 35 33 31 28 26 24 23 21 20 19 20 22 24 26 27 28 29 30 30 31 32 32 32 32 31 30 30 30 29 30 29 30 30 30 30 30 29 30 30 30 29 28 28 28 28
4 2 1 1 3 2 2 2 2 2 0 3 4 1 2 1 1 6 12 13 15 17 19 19 19 17 15 15 16 16 16 15 14 15 15 18 24 28 30 33 35 37 38 38 39 40 41 41 40 38 36 35 33 32 31 29 26 25 24 23 22 21 20 20 21 22 23 25 27 28 29 30 31 31 31 31 31 31 31 30 30 30 30 30 31 30 30 30 30 30 29 29 28 27 27 27 26
3 2 3 2 2 1 1 1 1 1 1 1 3 3 2 3 2 6 11 10 11 14 15 16 17 15 12 12 14 15 15 14 14 14 13 16 24 29 31 32 34 35 36 37 38 40 41 41 41 41 40 39 36 32 30 29 28 26 25 24 23 21 21 21 21 21 22 23 24 25 26 28 28 29 29 30 30 30 30 30 30 30 31 31 31 31 31 30 30 30 29 28 27 27 27 26 26
5 5 5 4 3 2 2 1 1 3 2 0 1 3 4 5 0 7 10 9 10 11 11 11 14 15 13 11 11 13 14 13 14 14 13 17 24 30 32 33 34 35 36 37 38 38 39 40 41 41 41 40 38 36 32 29 29 27 25 24 23 22 21 20 20 20 21 22 23 24 25 26 27 27 27 28 29 29 29 30 30 30 30 30 30 30 30 29 29 28 27 27 26 26 26 26 25
4 4 3 3 3 3 4 2 3 2 2 2 2 2 6 4 3 7 8 8 10 10 9 9 12 14 14 12 10 11 12 13 14 14 14 18 24 28 32 34 36 36 37 39 39 39 39 40 41 41 41 40 40 38 35 31 30 29 28 26 24 23 22 21 21 20 20 20 21 22 22 23 25 26 26 27 28 28 28 28 29 30 29 29 29 29 29 28 27 27 26 26 26 25 26 26 25
Wind_Direction
340 342 340 339 338 113 112 63 86 320 77 280 274 218 263 243 268 281 273 276 210 257 236 133 131 139 124 163 184 184 165 168 174 146 210 269 355 170 171 177 172 165 165 167 167 165 164 165 167 165 163 163 164 167 164 155 154 155 157 156 155 153 145 151 146 142 144 139 148 137 119 120 119 119 116 118 124 124 122 121 125 125 118 121 129 120 125 138 134 117 110 111 121 130 123 106 101
341 341 338 339 353 133 212 75 98 323 51 309 280 184 259 304 322 251 240 218 208 277 309 111 116 94 68 76 128 134 181 202 190 169 265 266 121 166 172 178 171 167 165 166 167 165 165 168 168 165 163 164 166 171 170 163 161 157 157 157 158 158 152 157 151 146 148 145 148 142 135 123 119 125 124 127 134 137 139 136 124 125 121 123 130 128 129 136 136 123 125 129 131 140 144 135 120
341 338 338 343 42 71 59 55 89 89 85 262 275 234 266 318 250 250 237 217 229 283 321 105 97 72 60 33 82 133 220 257 188 181 296 158 145 169 175 175 169 167 165 166 166 166 168 169 169 166 163 166 168 174 175 166 165 164 161 159 159 160 157 159 157 154 150 151 153 149 154 146 137 142 141 139 137 139 153 148 130 130 127 128 132 139 140 130 132 135 136 141 140 140 144 148 143
340 338 337 352 89 26 68 42 139 133 167 226 270 263 237 226 247 268 257 241 252 295 338 103 79 119 96 19 210 130 264 292 190 164 185 180 175 172 174 170 167 165 165 166 167 169 170 170 169 165 165 169 169 175 177 169 169 169 166 166 163 162 160 159 164 162 155 159 159 155 159 156 150 152 159 159 143 134 145 145 134 133 131 138 133 135 149 142 143 148 148 154 152 147 147 155 158
338 337 336 30 99 39 97 67 114 134 211 189 226 262 230 220 254 277 272 275 251 225 218 101 36 261 75 150 150 120 256 311 189 169 172 190 179 170 172 168 165 164 165 167 169 171 171 170 169 167 167 171 172 175 178 172 172 173 171 174 169 164 162 162 170 168 162 166 165 158 159 160 156 151 155 157 154 143 142 139 133 133 128 133 129 127 137 140 148 154 161 164 159 158 162 163 167
339 342 356 59 83 128 114 174 175 209 226 172 189 256 243 227 241 261 284 301 253 187 188 135 128 178 34 313 157 181 222 342 172 188 192 178 168 170 170 165 163 163 165 168 172 173 171 170 169 168 169 172 176 178 179 175 176 178 177 180 174 168 166 166 174 173 168 170 168 162 157 159 162 157 152 152 156 152 147 146 142 139 133 131 132 132 134 139 144 148 159 166 172 174 178 179 181
344 349 23 58 20 47 116 193 205 230 242 180 192 252 255 243 220 246 315 319 276 7 107 193 130 112 211 306 305 217 292 224 186 221 201 170 165 170 169 165 163 164 167 170 174 174 171 171 171 170 171 174 178 180 182 179 182 183 183 186 180 174 172 172 177 175 172 172 169 165 160 158 160 157 155 153 155 156 157 160 156 147 142 139 136 137 143 153 152 157 172 170 180 186 189 196 198
353 6 30 79 314 6 115 209 230 213 245 217 218 242 252 256 192 176 271 184 215 318 337 266 128 105 257 9 81 249 6 283 223 235 186 167 166 170 168 167 165 166 170 173 175 175 172 173 173 172 173 176 181 185 185 184 188 186 188 192 187 181 177 177 181 181 176 174 171 170 168 163 161 159 162 164 162 164 163 164 165 158 154 150 146 152 156 162 163 179 202 189 190 202 200 202 204
40 53 47 87 182 325 64 261 259 226 251 257 253 246 258 261 181 177 206 253 289 303 293 242 156 171 243 78 280 270 359 320 232 187 175 168 169 169 169 170 170 169 172 176 178 177 175 176 177 176 175 178 182 186 187 189 194 190 192 196 194 189 183 180 182 187 183 178 176 176 175 169 167 165 171 176 175 176 173 176 179 173 170 162 162 178 181 180 184 195 210 200 202 217 216 210 198
67 29 139 95 128 254 298 262 249 252 246 252 261 254 256 225 177 187 179 239 253 131 287 200 124 143 181 157 263 291 349 319 159 162 172 172 171 169 171 174 176 174 174 179 181 179 179 180 180 179 180 183 184 185 189 193 199 196 196 199 200 197 190 187 185 191 190 183 179 181 180 175 176 176 181 185 184 185 181 183 188 186 183 176 176 192 204 209 213 209 207 202 211 216 219 218 203
104 352 117 134 112 216 257 243 250 258 263 291 280 260 246 200 155 174 164 250 235 182 278 134 135 171 132 284 254 271 342 230 166 165 170 173 173 172 174 176 181 181 181 183 183 182 181 184 184 183 186 190 189 187 189 194 202 203 202 200 200 200 197 194 190 192 193 187 181 183 184 181 183 187 191 193 192 193 189 188 191 192 194 197 198 201 208 217 225 227 226 221 220 219 219 222 217
156 318 86 145 182 207 224 231 264 270 293 305 278 291 252 155 145 183 185 214 199 219 247 181 181 152 113 300 259 285 316 188 184 172 171 175 176 176 177 179 183 186 187 187 185 184 184 186 186 187 192 195 193 192 192 193 201 206 208 205 199 200 202 201 196 194 193 191 188 187 187 186 187 191 195 194 196 199 198 199 200 198 197 206 215 215 214 218 225 234 244 241 236 233 231 229 226
167 168 105 159 191 182 186 212 272 298 307 266 245 309 70 140 180 200 167 168 147 150 253 214 150 102 163 260 280 304 284 192 184 174 173 176 177 178 180 182 185 188 188 188 187 187 188 189 189 191 194 196 195 197 199 198 199 205 210 211 205 200 203 205 203 200 197 195 196 195 194 192 191 192 195 195 199 201 202 205 209 212 210 212 215 217 221 225 231 236 241 249 253 251 246 243 238
176 160 129 185 191 147 168 215 270 268 280 263 251 285 142 176 213 180 137 158 216 188 243 203 135 114 221 267 302 294 228 186 179 174 173 175 179 180 182 184 187 190 191 190 189 190 190 191 192 194 196 198 199 200 204 204 203 207 210 212 209 204 203 207 207 205 202 198 198 202 201 199 197 196 197 200 201 201 203 204 210 219 222 225 225 223 224 227 233 238 239 247 255 256 257 256 251
179 143 108 147 159 172 201 216 212 189 245 260 269 171 186 243 150 148 155 170 234 220 175 143 137 155 209 184 247 264 197 177 173 171 170 173 178 180 183 186 190 193 195 193 192 193 193 194 195 197 200 201 202 203 207 209 209 213 215 215 212 208 206 207 209 209 207 203 201 205 206 206 207 204 203 205 206 206 207 208 212 219 226 236 242 239 235 235 238 241 242 248 254 252 256 260 260
153 104 87 159 197 202 208 199 177 174 240 240 279 93 153 274 141 152 222 162 220 294 67 209 163 127 173 176 246 275 183 168 167 168 167 169 174 179 184 187 191 194 196 195 195 196 196 197 198 200 204 205 206 207 209 212 213 215 221 223 220 216 213 211 212 211 211 209 208 209 209 209 212 213 210 210 211 212 213 215 220 224 230 238 248 253 250 249 249 250 249 252 255 253 256 261 263
93 109 126 194 201 195 191 184 185 188 227 243 325 34 99 296 291 181 282 83 115 332 15 223 226 120 177 218 297 246 165 162 163 163 161 165 168 173 180 187 190 192 195 196 197 199 199 201 202 204 207 209 210 211 213 214 215 215 221 228 229 227 221 218 217 215 214 214 212 213 214 213 214 216 216 215 216 218 219 221 228 231 234 239 247 255 258 261 260 261 263 262 261 259 262 266 268
148 156 175 200 193 188 184 180 193 181 181 217 346 26 86 359 319 313 41 37 48 40 329 304 304 263 212 275 294 154 158 159 161 160 159 164 167 170 178 186 189 192 194 197 199 201 202 205 207 209 210 212 212 215 217 218 218 217 220 227 234 235 226 220 220 218 216 215 215 215 218 219 217 219 220 220 220 222 226 227 232 236 238 241 246 252 257 262 264 266 271 273 273 272 274 275 275
182 147 187 213 191 187 183 175 193 185 173 202 339 131 51 9 294 359 21 328 6 141 276 338 324 277 312 21 141 149 156 159 163 165 166 171 175 177 180 185 190 195 197 199 201 202 205 207 210 213 214 214 214 217 220 222 222 220 220 224 232 235 228 220 220 221 217 215 218 219 221 223 223 225 226 226 227 228 230 233 236 239 241 243 246 251 255 259 263 266 270 273 275 277 278 279 280
189 141 211 225 195 211 203 179 199 193 159 26 319 146 43 354 253 33 126 315 346 207 232 277 265 250 243 98 143 151 158 163 171 172 175 181 184 185 184 187 192 198 201 201 202 203 206 209 212 215 216 216 217 218 221 224 226 225 222 221 228 232 227 223 223 225 221 215 219 224 224 225 226 230 232 231 233 234 234 235 237 240 242 243 245 248 253 257 260 262 265 269 271 272 274 277 281
173 176 215 221 193 216 210 192 213 212 137 136 289 343 360 288 128 91 141 128 295 249 240 225 241 234 179 170 163 159 163 170 180 182 184 188 191 193 192 194 198 202 202 202 203 204 205 208 211 212 215 216 219 221 223 227 229 227 223 216 222 232 230 228 228 228 226 218 218 226 227 226 228 233 237 236 236 235 235 235 236 239 242 244 245 247 251 254 258 261 263 266 268 270 272 275 279
223 231 214 226 200 219 217 182 224 250 112 323 314 321 306 198 67 127 146 235 253 233 232 238 248 220 171 176 171 167 172 178 186 190 193 194 196 198 199 202 203 204 204 205 206 206 206 208 210 210 212 215 220 223 226 230 228 224 222 212 214 232 236 233 234 232 229 224 218 220 225 227 228 229 234 240 243 241 238 237 238 240 242 244 246 248 251 253 256 259 261 264 267 269 271 274 277
256 272 329 322 299 275 326 39 294 106 112 243 266 291 328 40 329 200 163 227 234 216 223 247 247 190 165 165 164 172 182 187 194 197 196 196 199 200 201 203 205 205 206 209 210 209 209 209 210 211 213 216 219 224 228 230 227 224 222 211 210 227 234 230 232 234 234 231 225 221 221 226 229 229 228 232 239 244 245 242 241 243 244 246 248 250 254 258 261 262 262 263 265 268 271 274 277
228 272 337 344 346 322 328 346 324 125 151 219 220 340 338 12 295 298 201 240 252 292 274 257 230 156 146 157 176 186 189 193 201 203 202 201 202 203 204 204 206 207 208 212 213 212 212 211 212 213 215 217 220 223 227 230 229 227 222 214 212 220 230 231 231 235 236 235 233 229 225 225 230 233 233 233 235 240 246 247 246 247 247 248 249 252 255 260 264 267 269 269 271 273 275 276 279
61 293 330 333 322 330 314 322 57 131 199 233 95 298 253 214 222 349 260 256 274 320 328 60 110 124 146 173 189 196 196 204 208 209 211 211 211 211 210 210 210 209 212 215 215 216 216 215 214 215 217 219 221 223 226 229 230 229 225 221 220 221 229 236 235 237 238 237 237 234 230 228 229 231 235 239 241 241 245 249 250 250 251 251 251 253 256 259 262 267 271 274 276 278 278 279 281
47 290 306 309 314 327 311 336 41 323 248 142 152 275 273 246 187 284 263 261 289 17 42 70 105 130 174 189 198 202 204 212 212 212 216 218 219 220 217 215 213 213 216 218 217 219 219 218 217 218 219 220 222 224 226 229 230 231 230 227 227 227 232 237 238 239 241 241 239 237 236 234 233 232 234 239 242 244 246 249 251 252 253 254 256 257 258 260 263 267 270 273 276 277 278 280 283
282 265 279 285 294 305 316 348 324 307 268 161 196 262 286 319 41 263 271 264 54 48 51 66 113 154 194 205 209 210 221 222 215 212 218 222 223 223 221 218 218 218 218 220 220 221 222 220 221 221 222 223 224 225 227 229 230 231 232 232 231 232 233 235 237 239 241 242 242 240 240 239 238 237 238 240 243 245 247 249 251 252 254 255 257 260 262 263 264 267 268 270 273 275 278 281 283
272 258 300 306 307 297 12 127 270 312 302 172 171 258 296 13 123 231 262 265 60 29 22 68 162 198 204 210 213 209 231 230 215 211 214 220 222 221 222 221 221 221 221 222 223 223 224 224 224 224 224 225 226 228 230 231 231 231 232 233 234 234 235 237 238 240 241 242 242 242 242 243 243 242 242 243 244 246 248 250 252 253 255 255 257 260 264 267 267 267 267 268 271 274 277 279 280
285 61 346 320 353 351 342 30 289 356 289 166 140 295 285 193 209 234 259 301 344 330 299 256 231 236 220 215 222 218 234 227 209 218 223 224 224 222 225 226 223 223 225 225 225 226 227 227 227 227 226 227 229 231 233 234 234 233 232 234 235 237 238 240 241 242 243 243 243 243 244 245 245 246 246 246 247 248 251 253 255 256 257 258 259 261 264 266 268 266 266 268 271 274 276 279 281
330 59 74 332 7 352 331 355 322 89 181 172 138 269 265 234 251 254 282 357 356 315 286 267 245 253 249 226 226 232 239 224 212 224 230 231 230 227 229 231 228 228 230 227 228 229 229 229 229 229 228 229 231 232 234 236 237 236 235 236 237 238 240 241 242 243 245 244 245 246 247 249 249 248 247 248 249 251 254 256 258 260 260 260 261 262 264 265 266 267 268 269 271 274 276 279 280
51 34 43 15 47 283 321 350 350 66 172 60 126 220 270 265 272 286 329 19 23 322 299 300 297 292 287 266 256 254 252 248 245 245 245 245 242 237 236 236 233 232 232 230 231 231 231 231 230 231 231 231 233 233 235 237 239 238 238 238 238 239 241 242 243 245 246 247 248 249 250 251 251 250 250 251 252 253 255 258 260 262 262 262 262 263 263 264 265 267 269 270 271 274 275 277 278
29 71 359 353 125 275 323 7 23 28 324 11 117 230 276 264 282 321 338 13 39 354 313 318 323 318 321 313 299 291 285 279 271 264 261 258 252 246 244 242 239 235 234 233 233 233 232 233 232 232 233 233 234 234 236 237 239 241 240 241 241 241 242 244 245 247 249 250 250 251 252 253 253 252 252 252 253 254 255 257 260 263 264 262 261 262 261 261 263 266 268 268 270 272 273 276 278
359 81 119 338 51 308 318 7 21 25 349 358 48 287 302 294 306 321 326 357 14 354 321 317 319 319 326 319 305 302 297 295 280 264 261 260 256 251 248 248 246 242 240 238 236 234 233 234 233 232 233 234 235 236 236 237 239 241 241 242 242 243 244 245 247 248 250 251 251 251 252 253 254 254 253 253 254 254 255 258 261 264 266 264 262 261 260 261 263 265 267 267 268 271 272 275 278
328 29 98 61 33 69 315 323 353 27 39 4 13 26 290 299 312 320 329 359 4 348 329 317 313 311 311 311 302 298 299 302 289 273 272 271 267 262 256 255 253 249 247 245 241 238 237 236 234 234 234 234 236 237 237 238 239 240 241 243 244 244 245 247 249 250 250 251 251 252 253 254 255 255 254 254 254 255 256 258 261 264 265 265 263 262 262 263 264 265 266 267 267 269 271 274 277
37 29 76 47 4 32 338 306 329 17 27 355 355 356 302 307 317 321 324 347 8 353 325 310 307 303 299 306 296 279 285 285 280 285 296 301 293 283 272 265 260 256 252 249 247 243 241 240 237 236 236 234 235 237 238 239 239 239 240 242 244 245 246 247 248 249 251 251 251 252 253 254 255 255 255 255 255 255 256 258 260 262 263 264 264 263 262 261 262 263 263 266 267 268 270 273 277
95 70 88 96 18 294 289 277 286 360 2 335 346 325 303 315 316 313 315 334 353 341 331 319 313 311 311 319 309 294 284 269 280 296 306 314 312 308 296 282 272 265 258 252 249 246 244 242 239 238 237 235 234 234 235 235 235 236 237 239 241 243 244 246 247 249 250 251 251 252 252 254 255 256 256 255 255 255 256 257 258 260 262 262 262 261 260 260 261 262 263 265 267 268 269 271 274
87 77 68 83 74 300 290 284 297 357 8 289 299 311 299 296 294 295 307 329 338 335 346 342 328 327 329 333 330 324 306 280 295 308 314 325 335 338 332 314 291 276 268 257 249 248 246 243 239 238 238 236 233 231 229 229 230 230 232 235 239 241 243 244 246 247 248 250 250 251 252 253 254 255 256 255 254 255 255 256 258 259 260 260 260 260 261 262 262 262 263 264 265 266 268 269 271
68 80 67 39 23 289 276 281 313 3 38 288 310 336 314 294 287 286 304 324 330 337 348 339 328 327 329 337 335 328 319 309 317 323 329 339 347 348 346 340 320 292 282 269 256 253 250 244 242 241 239 235 234 231 228 228 229 228 230 234 238 241 242 244 246 248 249 250 251 251 252 253 254 254 255 254 254 255 255 256 257 258 258 258 259 260 261 261 261 260 260 260 261 262 265 267 267
69 72 78 37 335 301 293 305 329 357 36 299 319 341 309 301 292 281 302 321 317 330 331 304 305 318 329 338 334 330 329 329 334 334 335 340 343 343 343 342 336 318 303 287 271 262 254 247 246 244 240 237 236 233 230 230 230 230 232 236 239 241 244 246 249 252 253 253 253 253 253 253 254 254 254 254 255 256 256 256 256 256 257 257 258 259 259 259 258 257 256 256 257 259 261 262 258
67 75 83 345 301 347 306 316 334 342 35 279 305 321 307 325 329 306 312 311 296 311 309 279 261 290 310 318 322 325 329 331 335 334 333 335 336 337 337 337 336 331 322 310 292 274 261 253 250 247 242 240 239 236 234 233 231 232 235 237 240 243 247 250 253 255 254 254 254 254 254 253 254 254 254 255 255 256 256 255 256 256 256 257 257 257 257 257 256 255 254 253 252 251 254 256 255
34 78 94 310 299 290 240 297 332 343 9 337 340 353 327 349 0 336 323 321 325 338 345 347 347 320 310 324 338 337 332 330 332 334 335 335 331 330 330 331 331 330 327 323 314 297 278 266 259 252 246 242 241 240 238 235 231 231 232 234 237 241 246 249 250 252 251 250 252 252 253 254 255 256 255 255 255 256 256 256 256 256 256 256 256 256 256 256 256 255 254 251 248 246 248 254 254
16 65 144 259 262 249 271 316 2 23 359 340 27 40 304 330 359 338 331 342 342 354 5 360 354 354 355 353 353 353 349 345 342 340 339 338 336 333 331 332 331 329 327 326 322 314 299 284 270 258 250 245 243 242 239 235 230 227 226 224 227 232 238 240 241 245 247 248 252 253 254 256 255 256 256 255 256 256 256 256 256 256 256 255 255 255 256 255 254 254 253 251 248 247 247 250 250
42 194 203 258 212 199 295 340 53 68 303 324 51 105 264 329 343 320 331 338 334 356 9 0 355 358 359 357 355 356 354 356 357 354 352 349 346 343 338 336 334 329 327 328 325 320 312 302 285 266 256 250 246 243 239 234 229 227 226 225 226 227 233 240 242 245 248 251 255 257 257 257 257 257 257 258 257 257 257 257 257 257 256 256 255 254 255 255 254 254 254 252 250 249 244 243 247
92 222 182 326 67 80 346 73 97 182 254 343 19 99 146 334 301 296 326 346 352 4 1 354 356 356 355 358 360 0 359 1 1 358 356 354 352 350 344 339 336 332 329 330 328 323 318 311 299 279 263 255 250 244 239 234 230 228 228 228 230 230 234 243 247 250 253 255 257 259 260 260 260 260 260 260 260 258 258 258 257 256 256 256 254 254 256 256 256 255 254 252 251 248 243 242 246
248 278 315 322 44 84 95 90 109 302 54 356 339 37 83 304 285 308 347 29 15 360 351 348 353 354 356 357 358 0 1 2 2 358 354 352 352 352 348 344 343 341 336 333 331 327 323 318 309 292 271 261 254 247 240 237 234 231 230 230 232 234 237 243 248 250 253 256 258 259 260 261 261 262 262 262 261 260 260 260 259 258 257 256 255 256 258 258 257 255 253 251 249 247 244 243 244
276 318 1 45 51 51 64 72 92 39 52 323 322 15 70 289 293 320 10 44 15 345 340 346 350 354 357 357 358 360 1 359 358 356 352 350 350 351 351 352 353 352 348 344 339 336 333 328 319 303 284 271 260 250 243 239 236 233 231 231 234 238 241 243 246 249 250 252 255 257 258 259 260 261 263 262 261 261 261 261 260 259 258 257 256 257 258 257 256 255 254 252 250 248 245 243 243
295 12 18 27 30 29 40 32 62 55 12 273 318 4 67 343 290 281 41 69 28 347 341 348 352 358 358 358 359 358 358 356 353 352 350 349 349 352 355 356 355 354 355 354 352 350 347 342 334 317 298 284 268 255 247 241 237 234 232 233 236 240 243 244 246 248 249 249 251 254 255 257 258 259 261 262 262 262 262 262 262 262 261 258 257 259 259 257 256 256 254 253 250 248 245 245 245
42 53 42 39 7 7 25 0 34 66 282 269 312 339 85 102 266 264 267 33 31 8 349 345 348 356 358 357 357 355 355 352 352 353 350 348 350 353 354 354 352 352 354 354 355 356 356 355 350 335 318 303 284 265 253 245 239 236 235 235 237 242 244 243 244 248 250 250 251 254 255 257 258 258 259 259 260 261 260 261 261 262 262 260 259 262 261 260 260 257 253 251 249 247 245 243 241
40 48 54 63 19 9 17 345 14 89 248 270 317 348 85 196 253 271 312 1 9 356 353 344 346 359 360 355 352 350 351 353 353 353 350 349 350 351 351 349 348 348 350 350 352 354 356 358 358 351 342 331 310 285 265 253 246 241 240 239 239 242 243 243 244 247 250 251 251 254 255 256 256 257 257 257 260 261 259 258 259 259 261 260 259 260 260 260 259 254 250 249 247 245 244 240 237
15 41 82 93 94 63 353 310 1 306 272 283 318 13 39 279 278 251 321 348 327 329 358 4 8 9 359 350 350 350 353 357 355 351 350 348 346 347 347 346 345 345 346 349 352 353 353 355 357 354 352 350 341 320 291 270 259 252 248 246 244 244 245 246 247 248 252 253 253 254 256 256 257 258 259 261 264 264 261 260 260 260 260 260 260 259 258 258 256 252 249 247 246 245 245 241 240
344 118 109 113 127 123 188 212 139 236 276 300 333 39 158 247 71 150 173 269 298 353 14 17 19 10 358 354 357 357 355 353 351 348 346 345 345 346 346 345 344 343 344 348 351 353 355 355 355 352 351 351 351 345 332 307 285 270 260 254 252 250 250 250 251 252 255 257 257 257 258 260 261 262 264 266 267 265 263 262 261 260 260 260 260 259 258 256 254 251 249 247 247 247 245 242 240
321 115 78 58 151 142 150 155 170 191 312 306 325 38 221 220 40 32 25 355 3 22 21 16 11 2 359 0 359 358 352 347 347 346 343 343 344 345 345 345 344 343 344 345 347 350 353 354 355 354 352 350 348 347 345 337 321 302 285 271 264 259 257 256 256 257 258 260 261 260 261 263 264 266 267 267 268 266 265 264 262 261 261 261 260 259 258 256 253 251 248 246 245 245 243 241 240
336 47 38 318 215 138 106 60 2 50 56 287 319 305 295 332 359 351 14 13 9 12 11 11 6 358 1 0 355 353 348 344 343 341 339 340 343 344 345 345 344 344 343 343 344 347 349 352 354 354 353 352 350 345 341 338 334 326 315 302 288 275 268 264 263 263 263 263 264 264 264 266 266 267 269 270 270 269 268 266 264 264 263 261 260 259 258 257 254 251 248 246 244 244 242 240 239
65 45 339 314 38 91 97 79 14 40 77 284 328 295 314 352 344 340 9 16 9 4 1 1 1 0 358 353 351 348 345 343 340 341 342 342 344 345 344 344 344 344 343 342 344 345 348 351 352 351 350 350 349 346 340 336 332 328 324 320 312 301 289 279 274 271 270 269 268 268 269 269 270 271 272 272 272 272 271 269 267 266 264 262 260 258 258 257 254 251 248 246 246 244 241 239 238
84 96 321 63 81 45 38 82 51 38 68 303 323 316 318 324 253 352 10 19 12 3 358 354 353 356 353 347 348 347 345 346 345 347 346 343 344 345 344 345 344 345 345 345 346 346 348 350 350 350 348 346 345 343 340 338 334 329 324 320 316 312 306 298 291 285 280 276 274 274 274 273 275 275 275 274 273 272 271 269 268 266 265 263 261 258 256 255 251 248 245 244 243 242 238 237 237
15 36 16 49 113 118 17 100 110 95 123 311 335 345 312 237 217 22 22 23 18 7 356 347 343 346 350 348 347 346 347 347 346 348 346 344 344 345 346 347 346 347 347 348 349 348 348 348 348 347 346 344 344 342 339 337 336 332 326 323 319 314 310 305 299 294 289 284 281 280 279 278 278 277 276 275 273 272 270 269 267 266 263 261 260 258 256 252 248 245 241 240 239 238 235 235 236
11 28 20 7 355 26 37 26 78 90 103 137 352 326 285 252 184 46 35 24 17 8 353 340 335 338 344 351 351 347 346 347 348 348 348 348 347 347 348 349 349 350 350 351 351 349 348 347 346 344 342 341 341 340 337 334 333 331 328 324 322 319 315 309 304 298 293 289 286 284 282 281 279 278 277 276 274 272 271 270 269 266 263 261 258 257 254 250 245 241 239 237 236 234 232 232 233
51 45 29 22 10 47 60 343 334 49 102 154 162 267 279 281 57 61 50 26 6 356 348 340 335 334 338 347 355 352 347 346 349 349 348 350 350 349 349 350 352 352 351 351 350 349 348 346 345 343 340 339 338 337 335 332 329 329 327 324 321 319 316 312 308 303 298 294 290 287 284 282 280 278 277 276 274 274 272 271 269 266 264 261 257 255 252 247 242 238 236 234 232 231 230 229 228